[[{"header":{"parameterUnit":"m.s-1","parameterCategory":1,"la1":30.2991,"la2":30.254,"lo1":-89.0895,"lo2":-89.0444,"dy":0.0017,"dx":0.0017,"nx":28,"ny":28,"refTime":"2024-03-22T03:00:00:Z","depth":0,"parameterNumber":2,"parameterNumberName":"U-component_of_WINDS"},"data":[0,0,0,0,0,0,0,0,0,0,0,0,0,0,0,0,0,0,0,0,0,0,0,0,0,0,0,0,0,0,0,0,0,0,0,0,0,0,0,0,0,0,0,0,0,0,0,0,0,0,0,0,0,0,0,0,0,0,1.5636,1.5636,0,1.5669,1.567,1.567,1.5652,1.5651,1.565,1.5649,1.5683,1.5684,1.5686,0,0,0,0,0,0,0,0,0,0,0,0,0,1.5555,1.5557,1.5636,1.5636,1.5636,1.5669,1.567,1.567,1.5652,1.5651,1.5649,1.5648,1.5682,1.5684,1.5686,0,0,0,0,0,0,0,0,0,0,0,0,0,1.559,1.5558,1.5636,1.5631,1.5631,1.5669,1.567,1.567,1.5652,1.5651,1.5649,1.5648,1.5681,1.5684,1.5687,1.5731,0,0,1.5695,1.5696,0,0,0,0,0,0,0,0,1.5588,1.5593,1.5631,1.5632,1.5632,1.5655,1.5654,1.5691,1.5652,1.5644,1.5649,1.5647,1.5674,1.5678,1.5687,1.5732,1.5734,1.5695,1.5696,1.5698,1.5698,0,0,0,0,0,0,0,1.5586,1.5591,1.5649,1.5632,1.5632,1.5628,1.5631,1.5661,1.5667,1.5645,1.5643,1.5648,1.5674,1.5684,1.5688,1.5734,1.5695,1.5697,1.5699,1.57,1.582,1.5821,0,0,0,0,0,0,1.5583,1.5589,1.5648,1.565,1.5606,1.563,1.5634,1.5649,1.5666,1.5668,1.5649,1.5647,1.5681,1.5685,1.5689,1.5743,1.5698,1.57,1.5702,1.5818,1.582,1.5822,0,0,0,0,0,0,1.5582,1.5589,1.5647,1.5619,1.5626,1.5633,1.565,1.565,1.566,1.5669,1.567,1.5658,1.568,1.5685,1.5721,1.5744,1.5701,1.5704,1.5816,1.5819,1.5821,1.5851,0,0,0,0,0,0,1.558,1.5588,1.5605,1.562,1.5628,1.5678,1.5651,1.5652,1.5665,1.5663,1.5678,1.568,1.5679,1.5717,1.5724,1.5747,1.5706,1.5814,1.5817,1.582,1.5848,1.5854,1.586,0,0,0,0,0,1.5577,1.5611,1.5606,1.5613,1.5649,1.5679,1.5684,1.5683,1.5667,1.5684,1.569,1.5679,1.574,1.5721,1.5728,1.5752,1.5813,1.5817,1.582,1.5846,1.5853,1.586,0,0,0,0,0,0,1.5598,1.5613,1.5607,1.5648,1.5663,1.5676,1.5697,1.569,1.571,1.5706,1.5704,1.5708,1.5745,1.5752,1.573,1.5797,1.5774,1.5779,1.5791,1.5798,1.5804,1.5802,1.5708,0,0,0,0,0,1.5608,1.5631,1.5643,1.5678,1.5686,1.5691,1.5704,1.5702,1.5717,1.5723,1.5731,1.5746,1.5769,1.5784,1.5805,1.5849,1.5853,1.587,1.5875,1.588,1.5885,1.591,1.5918,1.5834,1.5834,1.5834,0,0,1.5627,1.5639,1.5654,1.5683,1.5694,1.5719,1.5696,1.5723,1.5741,1.5727,1.5762,1.5769,1.5785,1.5826,1.5844,1.5833,1.5909,1.5885,1.5888,1.589,1.5915,1.5923,1.593,1.5836,1.5836,1.5835,0,0,1.5676,1.5687,1.5718,1.573,1.5748,1.5751,1.5758,1.5774,1.5778,1.5813,1.5803,1.5826,1.5864,1.5877,1.5889,1.5945,1.5936,1.5952,1.5982,1.6007,1.6014,1.602,1.6041,1.6049,1.5957,1.5957,1.5957,0,1.5699,1.5736,1.5734,1.5763,1.5777,1.5765,1.5797,1.5809,1.5832,1.5842,1.5829,1.5879,1.589,1.5934,1.5948,1.5957,1.5967,1.595,1.6013,1.6019,1.6024,1.6045,1.6053,1.5959,1.5958,1.5958,1.5958,0,1.5763,1.5789,1.5812,1.5837,1.5853,1.5882,1.5886,1.5903,1.59,1.5905,1.5941,1.5954,1.5978,1.5988,1.5985,1.6033,1.6026,1.6013,1.599,1.6034,1.6054,1.6061,1.5961,1.5961,1.596,1.596,0,0,1.5826,1.585,1.5859,1.587,1.589,1.591,1.594,1.5965,1.598,1.5997,1.6023,1.6057,1.6046,1.6059,1.6057,1.6079,1.6125,1.6064,1.6064,1.6076,1.618,1.6191,1.62,1.6119,1.6121,1.6122,1.6179,0,1.5877,1.593,1.593,1.5979,1.6004,1.5995,1.6021,1.6036,1.6042,1.6064,1.607,1.6095,1.6078,1.6086,1.6107,1.6115,1.6146,1.6111,1.6144,1.6145,1.6141,1.6209,1.622,1.6274,1.6187,1.6188,1.6189,0,1.5943,1.5964,1.6016,1.6034,1.6044,1.6068,1.6091,1.6112,1.613,1.6133,1.6149,1.6144,1.6176,1.6152,1.6196,1.6172,1.6186,1.6192,1.6194,1.6197,1.617,1.6216,1.629,1.6299,1.62,1.62,1.6199,0,1.5986,1.6026,1.6063,1.6073,1.6094,1.6111,1.6121,1.6137,1.6153,1.6173,1.6184,1.6207,1.6221,1.624,1.6242,1.6224,1.6287,1.6263,1.6291,1.6291,1.6305,1.6304,1.6384,1.6312,1.6312,1.6312,1.6312,0,1.6043,1.6076,1.6082,1.6105,1.6141,1.6142,1.6178,1.6186,1.6201,1.6225,1.6218,1.6242,1.6243,1.6267,1.6269,1.6307,1.6312,1.6316,1.6316,1.6317,1.6317,1.6327,1.6323,1.6314,1.6314,1.6313,1.6313,0,1.6097,1.6102,1.6142,1.6159,1.6165,1.6191,1.6206,1.6228,1.6233,1.6265,1.6272,1.6281,1.6309,1.6314,1.6346,1.6348,1.6393,1.6389,1.6387,1.6387,1.6416,1.6414,1.6505,1.6518,1.6437,1.6438,1.6438,0,1.6133,1.6158,1.6179,1.6195,1.6206,1.6232,1.6248,1.625,1.6267,1.6291,1.631,1.6338,1.636,1.6406,1.6415,1.6441,1.6438,1.6469,1.6442,1.6443,1.644,1.6439,1.6442,1.6474,1.6475,1.6475,1.6476,0,1.6199,1.6201,1.6224,1.625,1.627,1.629,1.6308,1.6322,1.6326,1.6346,1.6376,1.6393,1.6427,1.6456,1.6481,1.6492,1.6485,1.6484,1.6493,1.6494,1.6493,1.6495,1.6403,1.6482,1.6482,1.6481,1.6481,1.6481,1.6246,1.6268,1.6287,1.6314,1.6329,1.6347,1.6369,1.6378,1.6403,1.6431,1.6431,1.6463,1.6482,1.6516,1.6528,1.6554,1.6544,1.6556,1.6559,1.6562,1.6566,1.6488,1.6559,1.6559,1.6558,1.6558,1.6558,0,1.6312,1.6324,1.6349,1.6376,1.6398,1.639,1.6411,1.643,1.6459,1.6477,1.65,1.6534,1.6562,1.6574,1.6602,1.662,1.6618,1.6628,1.6627,1.663,1.6572,1.6563,1.6629,1.6629,1.6629,1.6629,1.6629,1.6629,1.6349,1.6387,1.6392,1.6437,1.6449,1.6481,1.6494,1.6511,1.6526,1.6565,1.6588,1.6597,1.6613,1.6642,1.6667,1.667,1.6681,1.6692,1.6694,1.664,1.6633,1.6626,1.6618,1.6695,1.6695,1.675,1.675,1.6751]},{"header":{"parameterUnit":"m.s-1","parameterCategory":1,"la1":30.2991,"la2":30.254,"lo1":-89.0895,"lo2":-89.0444,"dy":0.0017,"dx":0.0017,"nx":28,"ny":28,"refTime":"2024-03-22T03:00:00:Z","depth":0,"parameterNumber":3,"parameterNumberName":"V-component_of_WINDS"},"data":[0,0,0,0,0,0,0,0,0,0,0,0,0,0,0,0,0,0,0,0,0,0,0,0,0,0,0,0,0,0,0,0,0,0,0,0,0,0,0,0,0,0,0,0,0,0,0,0,0,0,0,0,0,0,0,0,0,0,-6.9653,-6.9653,0,-6.9686,-6.9686,-6.9687,-6.9629,-6.9627,-6.9625,-6.9624,-6.9653,-6.9656,-6.9658,0,0,0,0,0,0,0,0,0,0,0,0,0,-6.9537,-6.9539,-6.9653,-6.9653,-6.9653,-6.9686,-6.9686,-6.9687,-6.963,-6.9627,-6.9625,-6.9623,-6.9652,-6.9655,-6.9658,0,0,0,0,0,0,0,0,0,0,0,0,0,-6.958,-6.954,-6.9653,-6.9629,-6.9627,-6.9686,-6.9686,-6.9687,-6.963,-6.9627,-6.9624,-6.9622,-6.9651,-6.9655,-6.9659,-6.9741,0,0,-6.9671,-6.9672,0,0,0,0,0,0,0,0,-6.9578,-6.9584,-6.9632,-6.9631,-6.9629,-6.9651,-6.9656,-6.9705,-6.9631,-6.9629,-6.9624,-6.962,-6.9654,-6.9658,-6.967,-6.9742,-6.9743,-6.9671,-6.9673,-6.9675,-6.9676,0,0,0,0,0,0,0,-6.9575,-6.9583,-6.9666,-6.9633,-6.9631,-6.9616,-6.9619,-6.9665,-6.9657,-6.9629,-6.9625,-6.963,-6.9653,-6.9667,-6.967,-6.9744,-6.9671,-6.9674,-6.9677,-6.9678,-6.9887,-6.989,0,0,0,0,0,0,-6.9575,-6.958,-6.9665,-6.9667,-6.9596,-6.962,-6.9624,-6.9646,-6.9657,-6.9655,-6.9632,-6.9627,-6.9661,-6.9666,-6.9671,-6.9769,-6.9675,-6.9679,-6.9681,-6.9884,-6.9888,-6.9891,0,0,0,0,0,0,-6.9573,-6.9583,-6.9663,-6.9623,-6.9632,-6.9625,-6.9651,-6.9649,-6.9662,-6.9659,-6.9657,-6.9648,-6.9659,-6.9666,-6.9725,-6.977,-6.968,-6.9684,-6.988,-6.9885,-6.9889,-6.9966,0,0,0,0,0,0,-6.957,-6.9583,-6.9614,-6.9624,-6.9634,-6.9717,-6.9654,-6.9651,-6.967,-6.9663,-6.9673,-6.9672,-6.9657,-6.9719,-6.9729,-6.9773,-6.9687,-6.9876,-6.9882,-6.9888,-6.9959,-6.9972,-6.9984,0,0,0,0,0,-6.9566,-6.9633,-6.9616,-6.9626,-6.9673,-6.972,-6.9725,-6.9709,-6.9674,-6.9705,-6.9703,-6.9672,-6.9763,-6.9726,-6.9736,-6.9782,-6.9873,-6.988,-6.9887,-6.9953,-6.997,-6.9984,0,0,0,0,0,0,-6.9625,-6.9633,-6.9615,-6.9687,-6.9704,-6.971,-6.9749,-6.9726,-6.9751,-6.9744,-6.972,-6.9723,-6.9787,-6.979,-6.9748,-6.9863,-6.9812,-6.9822,-6.9859,-6.9874,-6.9887,-6.9885,-6.969,0,0,0,0,0,-6.9648,-6.9686,-6.969,-6.9753,-6.9763,-6.9755,-6.9774,-6.976,-6.9776,-6.9782,-6.9784,-6.9799,-6.9832,-6.9853,-6.9882,-6.9959,-6.9961,-6.9997,-7.0009,-7.0019,-7.0028,-7.0071,-7.0087,-6.9915,-6.9915,-6.9915,0,0,-6.9692,-6.9701,-6.9726,-6.9765,-6.9777,-6.9816,-6.9761,-6.9804,-6.9834,-6.9787,-6.9844,-6.9847,-6.9862,-6.9932,-6.9962,-6.9936,-7.0076,-7.0028,-7.0037,-7.004,-7.008,-7.0096,-7.0111,-6.992,-6.9919,-6.9918,0,0,-6.9795,-6.9805,-6.986,-6.9874,-6.9893,-6.9887,-6.9901,-6.9912,-6.9913,-6.997,-6.9937,-6.9971,-7.0026,-7.004,-7.0054,-7.0165,-7.0138,-7.0175,-7.024,-7.0283,-7.0296,-7.0308,-7.0349,-7.0364,-7.0184,-7.0184,-7.0184,0,-6.9847,-6.9908,-6.9891,-6.9939,-6.9957,-6.992,-6.9976,-6.9989,-7.0016,-7.0029,-7.0,-7.0072,-7.0079,-7.0152,-7.018,-7.0192,-7.0207,-7.0174,-7.0296,-7.0308,-7.0318,-7.0357,-7.0373,-7.0189,-7.0188,-7.0188,-7.0187,0,-6.9973,-7.0015,-7.0057,-7.0087,-7.011,-7.0161,-7.0152,-7.0178,-7.0163,-7.0161,-7.022,-7.0229,-7.026,-7.0276,-7.026,-7.0348,-7.0332,-7.03,-7.0248,-7.034,-7.0376,-7.0391,-7.0195,-7.0193,-7.0192,-7.0191,0,0,-7.0111,-7.0135,-7.015,-7.0165,-7.0184,-7.0216,-7.0266,-7.03,-7.0323,-7.0343,-7.0385,-7.0434,-7.0406,-7.0422,-7.0408,-7.0445,-7.0535,-7.0409,-7.0409,-7.0433,-7.0634,-7.0658,-7.0676,-7.0517,-7.052,-7.0522,-7.0633,0,-7.0214,-7.0303,-7.0291,-7.0376,-7.0416,-7.0383,-7.0427,-7.0444,-7.0444,-7.0477,-7.0476,-7.0512,-7.0471,-7.0481,-7.0517,-7.0517,-7.0575,-7.0509,-7.0556,-7.0558,-7.0554,-7.0694,-7.072,-7.0824,-7.0647,-7.0649,-7.0651,0,-7.0346,-7.0375,-7.0465,-7.0481,-7.0497,-7.0537,-7.0569,-7.0601,-7.0619,-7.0617,-7.0637,-7.0617,-7.0667,-7.0615,-7.0684,-7.0639,-7.0658,-7.0661,-7.0664,-7.0668,-7.061,-7.0703,-7.0856,-7.0872,-7.0673,-7.0671,-7.0669,0,-7.044,-7.0501,-7.0563,-7.0576,-7.0597,-7.0626,-7.0636,-7.0652,-7.0674,-7.07,-7.0715,-7.0746,-7.0763,-7.0788,-7.0777,-7.074,-7.0849,-7.0795,-7.0848,-7.0849,-7.0872,-7.0871,-7.1031,-7.0884,-7.0883,-7.0883,-7.0883,0,-7.0556,-7.0613,-7.0606,-7.0645,-7.0708,-7.0694,-7.0756,-7.0761,-7.0776,-7.0815,-7.0787,-7.0824,-7.0807,-7.0842,-7.0834,-7.0893,-7.0901,-7.09,-7.0897,-7.0903,-7.0903,-7.0915,-7.0908,-7.0887,-7.0886,-7.0885,-7.0885,0,-7.0672,-7.0669,-7.0736,-7.0751,-7.0757,-7.0803,-7.0815,-7.0851,-7.0851,-7.09,-7.0911,-7.0909,-7.0949,-7.0941,-7.0985,-7.0979,-7.1054,-7.1042,-7.1049,-7.1046,-7.11,-7.1096,-7.1274,-7.1297,-7.1134,-7.1136,-7.1137,0,-7.0746,-7.079,-7.0812,-7.0837,-7.085,-7.089,-7.0914,-7.0902,-7.0927,-7.0954,-7.0987,-7.1026,-7.1056,-7.1122,-7.1124,-7.1158,-7.1146,-7.1207,-7.1151,-7.1156,-7.1149,-7.1147,-7.1152,-7.1218,-7.1219,-7.1221,-7.1222,0,-7.088,-7.0878,-7.0914,-7.0951,-7.098,-7.1007,-7.1032,-7.1054,-7.1044,-7.1074,-7.1117,-7.1141,-7.1187,-7.1226,-7.1258,-7.1267,-7.1244,-7.124,-7.1254,-7.1261,-7.1264,-7.1264,-7.108,-7.1236,-7.1234,-7.1233,-7.1233,-7.1232,-7.0978,-7.1016,-7.1039,-7.108,-7.1099,-7.1123,-7.1159,-7.1164,-7.12,-7.1239,-7.123,-7.1279,-7.1298,-7.1339,-7.1352,-7.1389,-7.1367,-7.1387,-7.1392,-7.1398,-7.1405,-7.1258,-7.1395,-7.1394,-7.1394,-7.1394,-7.1393,0,-7.1111,-7.1125,-7.1164,-7.1201,-7.1234,-7.1212,-7.1239,-7.1268,-7.1312,-7.1333,-7.1365,-7.1415,-7.1454,-7.146,-7.1497,-7.1526,-7.1516,-7.1536,-7.1533,-7.1536,-7.1422,-7.1407,-7.1543,-7.1543,-7.1543,-7.1543,-7.1543,-7.1543,-7.1184,-7.1249,-7.125,-7.1324,-7.1336,-7.1386,-7.1404,-7.1427,-7.1444,-7.1502,-7.1535,-7.154,-7.1556,-7.1594,-7.1628,-7.1629,-7.1644,-7.1669,-7.1665,-7.1559,-7.1544,-7.153,-7.1515,-7.1672,-7.1672,-7.1776,-7.1777,-7.1778]}]]